Wind_Speed
41 41 41 41 41 41 40 39 39 39 39 40 41 41 41 41 41 42 42 43 43 43 43 43 43 43 42 42 43 43 43 44 44 45 45 44 45 44
41 40 40 40 40 40 40 39 39 40 39 39 40 40 40 40 41 41 42 41 41 41 40 40 41 40 41 39 40 40 41 42 43 44 45 45 44 44
41 41 40 41 40 40 41 41 41 41 41 40 41 41 41 41 41 41 41 40 39 39 38 38 38 38 38 38 39 39 40 40 41 43 44 44 45 45
41 41 42 42 42 42 42 42 42 42 42 42 41 41 41 41 41 40 40 39 38 37 37 37 37 37 38 38 38 38 38 38 39 39 40 42 43 43
41 41 42 43 43 43 43 43 42 42 42 41 41 41 41 40 40 40 39 39 39 38 37 36 36 37 38 38 38 38 37 38 38 38 38 39 40 41
41 41 42 43 43 43 43 42 42 42 41 41 40 40 40 40 40 40 39 39 39 38 38 37 37 37 38 37 37 38 38 38 38 38 38 38 39 39
41 41 42 42 42 42 41 41 41 41 40 40 40 40 39 40 40 40 39 38 38 38 37 37 37 37 38 38 38 38 38 38 38 38 37 37 37 38
41 41 41 41 40 39 39 39 40 39 39 39 39 39 39 38 39 39 39 38 38 38 38 38 38 38 38 39 38 37 37 36 36 36 36 36 36 36
41 41 40 39 39 38 38 38 39 39 39 38 38 38 38 38 39 38 38 38 37 37 37 37 37 37 37 36 36 35 34 34 34 35 34 34 34 35
40 39 39 38 38 38 38 38 38 38 39 39 39 39 39 38 38 38 37 36 36 36 36 36 36 35 34 34 34 33 33 33 33 33 33 33 33 33
38 38 38 38 38 38 38 38 38 38 38 39 39 39 39 38 38 37 37 36 36 35 35 34 34 34 33 33 33 33 33 32 32 32 32 32 32 32
37 37 37 37 37 37 37 37 37 37 38 38 38 38 39 38 37 37 36 36 35 35 34 34 33 33 33 33 33 33 33 33 32 32 32 31 31 31
36 36 36 36 36 37 37 37 36 36 36 37 37 36 36 36 36 35 35 35 35 34 33 33 32 32 31 31 32 32 32 32 32 32 32 31 31 31
35 35 35 35 35 35 36 36 35 35 35 35 35 35 34 34 34 34 34 34 34 34 33 32 31 31 30 30 29 30 30 31 30 30 30 30 30 30
34 34 34 35 35 35 35 35 34 34 34 34 33 33 32 32 32 32 32 33 32 32 31 31 31 30 30 29 29 29 29 28 28 28 28 28 29 29
33 33 33 33 33 33 33 33 33 33 33 32 31 30 30 30 30 30 30 31 30 30 30 30 30 29 28 28 28 28 27 27 26 25 25 26 27 29
32 31 31 30 31 31 31 31 31 31 31 30 30 29 29 28 28 28 28 28 29 29 29 29 28 28 28 28 27 27 26 26 26 25 25 26 26 26
30 30 29 29 30 30 30 30 30 30 29 28 28 28 27 27 26 26 26 27 26 26 27 27 27 27 27 27 26 26 26 26 26 26 26 25 24 23
29 28 28 29 29 28 28 28 28 28 27 27 26 26 25 25 24 24 24 25 24 24 24 25 25 26 26 25 24 25 25 24 24 24 24 23 21 21
27 27 28 28 27 27 27 26 26 26 26 25 25 24 24 23 23 23 23 23 23 23 23 24 24 24 24 23 23 23 23 23 22 22 22 21 21 20
26 27 27 26 26 26 25 25 24 24 24 24 24 23 23 23 23 23 23 23 23 22 22 23 23 22 22 22 22 21 22 22 21 21 20 20 19 19
25 26 25 25 24 24 24 23 23 22 23 23 22 22 22 22 22 22 22 22 22 21 21 21 21 20 20 20 20 20 20 20 20 19 19 18 18 18
24 25 24 23 23 23 23 22 21 21 21 21 20 21 21 21 22 22 22 22 21 21 20 20 19 19 19 19 18 18 18 18 19 19 18 18 18 17
Wind_Direction
276 276 274 275 275 276 277 277 278 279 280 280 280 280 280 282 282 282 283 283 283 283 282 281 279 278 277 275 275 275 273 271 270 268 267 268 268 267
275 275 274 276 275 276 277 278 278 280 281 280 280 281 281 282 283 283 282 283 283 283 283 281 280 279 279 277 276 276 276 274 272 269 268 269 268 268
273 274 275 276 275 275 277 278 278 279 280 280 281 281 282 283 284 283 283 283 283 282 283 282 281 280 281 280 279 278 277 277 276 274 271 269 267 267
273 274 275 277 276 276 277 278 278 280 280 281 282 282 283 283 283 283 283 283 282 282 282 282 281 281 281 282 281 280 279 279 278 277 274 271 269 267
272 274 276 277 277 276 277 277 278 280 281 281 282 282 282 283 283 283 283 282 282 281 281 281 282 282 283 283 281 280 281 280 279 279 278 276 272 268
273 274 276 278 277 277 277 277 278 280 280 281 281 282 282 282 283 282 281 282 281 280 281 281 283 283 283 283 282 281 282 282 281 279 278 277 274 270
274 275 276 277 276 276 276 277 278 279 279 280 280 281 281 281 281 281 280 280 280 280 280 280 281 282 282 283 283 283 283 282 281 280 278 277 276 273
274 275 276 276 275 276 276 277 277 278 278 279 279 279 280 280 280 280 279 279 279 279 280 280 280 281 282 283 283 283 283 282 281 279 278 278 276 275
273 275 277 275 274 276 277 277 278 278 277 278 279 279 280 280 279 279 278 279 279 279 279 280 281 282 282 282 283 282 283 282 282 281 279 278 277 276
274 275 276 275 275 276 276 277 277 277 277 276 277 278 278 278 279 279 278 278 279 279 280 281 282 282 281 280 281 282 283 284 283 282 280 278 278 277
275 275 276 276 275 276 276 276 276 276 277 277 278 279 279 279 279 278 278 278 279 280 281 282 282 281 280 280 281 281 283 284 283 282 281 280 279 279
275 276 276 276 275 275 276 277 277 277 277 278 279 279 279 278 278 278 279 279 279 280 281 282 281 280 279 279 279 280 282 284 284 283 281 279 279 279
274 275 276 275 275 275 276 277 278 277 277 278 278 279 279 278 279 279 279 279 280 282 281 281 280 280 280 280 279 280 281 281 282 281 279 278 279 279
273 274 275 274 275 276 277 277 277 276 277 277 277 278 279 279 279 279 279 279 280 281 280 280 280 280 280 280 280 280 280 281 282 280 278 277 278 278
273 274 274 274 276 277 277 277 276 277 278 278 278 277 278 279 279 279 280 281 280 279 279 278 279 280 280 281 281 281 280 281 281 279 277 277 277 278
274 275 276 275 275 276 276 276 276 277 277 277 276 276 277 278 278 279 280 281 280 280 279 279 279 280 281 282 282 282 281 280 280 279 280 281 281 280
274 276 275 274 276 276 276 277 277 276 276 275 274 275 276 277 278 280 281 282 281 280 279 278 279 280 281 281 281 281 281 281 281 281 282 283 285 284
274 275 275 275 276 276 276 276 276 276 275 273 272 273 274 276 278 279 281 283 283 282 280 278 279 280 281 281 281 281 280 281 281 282 283 284 284 283
274 273 274 276 276 276 276 276 276 275 273 271 271 272 273 275 278 280 281 282 283 284 282 281 280 280 280 280 280 280 280 280 281 281 283 282 282 284
275 274 274 276 275 275 275 275 275 274 273 271 270 271 272 275 278 280 281 282 283 284 284 283 281 281 281 281 279 278 278 279 280 281 281 281 283 285
275 275 275 275 276 275 274 274 273 272 271 270 269 270 272 275 278 281 282 282 283 284 285 285 284 282 282 281 279 277 277 279 281 282 280 280 283 284
274 275 274 274 276 275 274 273 271 270 270 270 270 271 273 276 279 281 282 282 283 284 286 286 285 282 282 281 279 278 277 278 280 281 279 280 285 288
273 274 273 274 275 274 272 270 269 268 268 268 269 272 275 277 279 281 282 282 283 284 285 286 286 283 282 282 280 279 278 278 279 280 279 280 284 287
Height
5676 5675 5674 5673 5671 5670 5669 5668 5668 5666 5665 5663 5660 5658 5656 5654 5651 5649 5646 5644 5641 5639 5637 5634 5632 5631 5629 5627 5626 5625 5624 5623 5623 5622 5623 5623 5623 5623
5666 5665 5663 5662 5661 5660 5659 5658 5657 5655 5654 5653 5650 5648 5645 5643 5640 5638 5636 5633 5630 5628 5625 5623 5621 5619 5618 5616 5614 5613 5612 5611 5610 5609 5610 5610 5610 5610
5655 5654 5653 5652 5651 5649 5648 5647 5646 5644 5643 5642 5639 5637 5635 5632 5630 5627 5625 5622 5620 5617 5615 5612 5611 5609 5608 5606 5605 5603 5602 5600 5599 5597 5597 5597 5597 5598
5645 5644 5643 5641 5640 5639 5638 5636 5635 5633 5632 5630 5628 5626 5623 5621 5619 5616 5614 5612 5610 5607 5605 5603 5601 5599 5598 5596 5594 5593 5591 5589 5588 5586 5585 5585 5585 5584
5634 5633 5632 5630 5629 5628 5626 5625 5623 5622 5620 5618 5617 5614 5612 5610 5607 5605 5603 5601 5599 5597 5595 5593 5591 5589 5588 5586 5584 5583 5581 5579 5578 5576 5574 5573 5572 5572
5622 5622 5620 5619 5618 5616 5615 5613 5612 5610 5608 5607 5605 5603 5601 5599 5597 5595 5593 5590 5588 5587 5585 5583 5581 5579 5578 5576 5574 5572 5571 5569 5567 5566 5564 5562 5561 5561
5611 5610 5609 5607 5606 5605 5603 5602 5600 5599 5597 5595 5594 5592 5590 5588 5586 5584 5582 5580 5578 5576 5575 5573 5571 5570 5567 5565 5564 5562 5560 5559 5557 5555 5554 5553 5551 5550
5600 5599 5597 5596 5594 5593 5592 5590 5589 5587 5586 5584 5583 5581 5579 5577 5575 5573 5571 5570 5568 5567 5564 5563 5561 5559 5557 5555 5554 5552 5550 5548 5546 5545 5544 5542 5541 5540
5588 5587 5586 5584 5583 5582 5581 5579 5578 5576 5575 5574 5572 5570 5568 5567 5565 5563 5561 5559 5557 5556 5554 5552 5550 5549 5547 5545 5543 5541 5540 5538 5536 5535 5534 5533 5531 5530
5577 5576 5574 5573 5572 5571 5570 5569 5567 5566 5564 5563 5561 5559 5557 5555 5554 5552 5550 5548 5547 5545 5543 5542 5540 5538 5536 5535 5533 5532 5530 5528 5526 5525 5524 5523 5521 5520
5566 5565 5563 5562 5561 5560 5559 5558 5557 5555 5553 5551 5550 5548 5546 5545 5543 5541 5540 5538 5537 5535 5533 5531 5530 5528 5527 5525 5524 5522 5520 5519 5517 5516 5515 5513 5512 5511
5555 5554 5552 5551 5550 5549 5548 5546 5545 5544 5542 5540 5538 5537 5535 5534 5532 5530 5529 5527 5526 5525 5523 5521 5520 5518 5517 5516 5514 5513 5511 5510 5508 5507 5505 5504 5503 5501
5543 5542 5541 5540 5539 5538 5536 5535 5534 5532 5531 5529 5528 5526 5524 5523 5521 5520 5518 5517 5515 5515 5513 5511 5510 5508 5507 5507 5505 5503 5502 5500 5499 5497 5496 5495 5494 5492
5533 5532 5531 5529 5528 5527 5526 5524 5523 5521 5520 5518 5517 5516 5514 5513 5511 5510 5508 5507 5505 5505 5503 5502 5501 5499 5498 5497 5496 5495 5493 5491 5490 5489 5487 5486 5484 5483
5522 5521 5520 5519 5518 5517 5515 5514 5512 5511 5509 5508 5507 5506 5504 5503 5501 5500 5498 5497 5495 5495 5493 5492 5491 5490 5489 5488 5487 5486 5485 5483 5481 5480 5478 5477 5476 5474
5512 5511 5510 5509 5508 5507 5505 5504 5502 5501 5499 5498 5497 5496 5495 5494 5492 5491 5489 5488 5486 5485 5484 5483 5482 5481 5480 5479 5478 5477 5476 5474 5473 5471 5470 5468 5467 5465
5502 5501 5500 5499 5498 5497 5495 5494 5492 5490 5489 5488 5487 5487 5486 5485 5484 5482 5481 5479 5478 5477 5475 5474 5473 5472 5471 5471 5469 5468 5467 5466 5464 5463 5462 5461 5459 5456
5492 5491 5491 5490 5489 5487 5486 5484 5483 5481 5480 5479 5478 5478 5477 5476 5475 5474 5472 5471 5470 5468 5467 5466 5465 5464 5463 5462 5461 5460 5459 5458 5457 5455 5453 5452 5451 5449
5483 5483 5482 5481 5480 5478 5477 5475 5474 5473 5471 5471 5470 5469 5469 5468 5468 5466 5465 5464 5462 5461 5460 5458 5457 5456 5456 5455 5454 5452 5451 5450 5448 5447 5446 5444 5444 5442
5475 5474 5474 5472 5471 5470 5469 5467 5466 5465 5464 5463 5463 5462 5462 5461 5460 5459 5458 5457 5455 5454 5452 5451 5450 5449 5448 5448 5447 5445 5443 5442 5441 5440 5439 5437 5436 5435
5467 5466 5465 5464 5463 5462 5461 5460 5459 5458 5457 5456 5456 5455 5455 5454 5453 5452 5451 5450 5448 5447 5446 5444 5443 5441 5440 5439 5439 5438 5437 5435 5434 5433 5432 5431 5430 5429
5459 5458 5457 5456 5455 5454 5453 5452 5452 5451 5450 5450 5449 5449 5448 5447 5447 5446 5444 5443 5442 5441 5439 5437 5436 5435 5434 5433 5432 5431 5431 5429 5428 5426 5425 5424 5423 5422
5451 5450 5449 5449 5448 5447 5446 5446 5445 5445 5444 5444 5443 5443 5442 5441 5440 5439 5438 5437 5435 5434 5433 5431 5430 5429 5428 5427 5426 5425 5424 5424 5423 5422 5421 5419 5418 5416